METEOR 2-5 DEB, 35255

Orbit data source: Space-Track

METEOR 2-5 DEB, 35255 is space debris in LEO originally from a launch on Wed, 31 Oct 1979 UTC launched from the Plesetsk Missile And Space Complex (PKMTR). Debris objects in space refer to the collection of defunct objects orbiting the Earth. Examples of debris include non-operational satellites, rocket bodies, and fragments generated from explosions, collisions, or faulty payload assembly.

Loading next visibility...
Identifier
35255, 1979-095W
Orbit
LEO
Country
Flag of CISCIS
Related business
Manufacturer
Unknown
Mission
Spacecraft
Bus & Motor
Unknown
Mass
Unknown
Launch date (UTC)
1979-10-31 (47 years ago)
Launch vehicle
Unknown
Launch site
Plesetsk Missile And Space Complex (PKMTR)
Object type
Payload
Rocket body
Debris
Shape & HBR
Unknown shape, 0.1 m
Radar Cross Section
Small (<0.1 m²)

Expand to show TLE details & history
Last TLE update: 2 weeks ago

TLE from 2 weeks ago
0 METEOR 2-5 DEB
1 35255U 79095W   26111.38950364  .00007433  00000-0  20758-2 0  9990
2 35255  81.1988 162.2313 0021837 166.6113 193.5662 14.46016387666280
Epoch: 2026-04-21T09:20Z
TLE epoch observation values (Epoch: 2026-04-21T09:20:53.114Z)
Latitude
-0.00001°
Longitude
172.54401°
Altitude
756.749 km
Speed
7.468 km/s
True Right ascension
10h 48m 55s
True Declination
0° 00' 00"
Sunlit
Object was in full shadow at epoch
Visualization orbit readout
Latitude
Unknown
Longitude
Unknown
Altitude
Unknown
Speed
Unknown
Apparent Right ascension
Unknown
Apparent Declination
Unknown
Sunlit
N/A
Visualization observer readout
Local Sidereal Time
15:00:43
Azimuth
Unknown
Elevation
Unknown
Doppler factor
Unknown
Orbital elements
Apogee altitude
751.352 km
Perigee altitude
720.283 km
Semi-major axis
7,113.955 km
Eccentricity
0.00218
Inclination
81.1988°
RAAN
162.2313°
Arg. of periapsis
166.6113°
True anomaly
193.50766°
Mean anomaly
193.5662°
Eccentric anomaly
193.53691°
Mean motion
3.61723 °/min
Orbital period
99.52 mins
BSTAR
0.0020758
Loading maneuver chart data...
Computing Atmospheric mass density...

Documentation

Showing up to 5 results
|